Weather History for Kuparuk, AK

Change the Weather History Date:

Wednesday, December 18, 2013

  Actual Average Record
Temperature  
Mean Temperature -10 °F -  
Max Temperature -7 °F 0 °F 30 °F (2008)
Min Temperature -14 °F -8 °F -32 °F (1991)
Degree Days  
Heating Degree Days 76    
Moisture  
Dew Point -18 °F    
Average Humidity 80    
Maximum Humidity 84    
Minimum Humidity 64    
Precipitation  
Precipitation 0.00 in - - ()
Sea Level Pressure  
Sea Level Pressure 30.08 in    
Wind  
Wind Speed 10 mph (West)    
Max Wind Speed 13 mph    
Max Gust Speed -    
Visibility 5 miles    
Events Fog , Snow    
Averages and records for this station are not official NWS values.
T = Trace of Precipitation, MM = Missing Value Source: NWS Daily Summary

Daily Weather History Graph

Daily Weather History Graph

Search for Another Location

Airport:

Trip Planner

Search our weather history database for the weather conditions in past years. The results will help you decide how hot, cold, wet, or windy it might be!

Date:

Astronomy

Dec. 31, 1969 Rise Set
Actual Time Sun does not rise Sun does not rise
Civil Twilight 10:58 AM AKST 2:52 PM AKST
Nautical Twilight 9:05 AM AKST 4:45 PM AKST
Astronomical Twilight 7:43 AM AKST 6:06 PM AKST
Moon 3:56 PM AKST 12:25 PM AKST
Length of Visible Light 3h 54m
Length of Day
0h 00m
Full, 98% of the Moon is Illuminated
Dec 18
Full
Dec 25
Last Quarter
Jan 1
New
Jan 7
First Quarter
Jan 15
Full

Hourly Weather History & Observations

Time (AKST) Temp. Windchill Dew Point Humidity Pressure Visibility Wind Dir Wind Speed Gust Speed Precip Events Conditions
3:45 AM -7.6 °F -27.5 °F -14.8 °F 71% 30.04 in 7.0 mi West 12.7 mph - N/A   Mostly Cloudy
4:45 AM -7.6 °F -27.5 °F -16.6 °F 65% 30.05 in 7.0 mi West 12.7 mph - N/A   Mostly Cloudy
5:45 AM -9.4 °F -27.9 °F -16.6 °F 71% 30.04 in 7.0 mi West 10.4 mph - N/A   Mostly Cloudy
6:45 AM -11.2 °F -30.1 °F -20.2 °F 64% 30.04 in 10.0 mi West 10.4 mph - N/A   Scattered Clouds
7:55 AM -14.8 °F -35.6 °F -18.4 °F 84% 30.05 in 10.0 mi West 11.5 mph - N/A   Mostly Cloudy
8:55 AM -14.8 °F -33.5 °F -18.4 °F 84% 30.05 in 10.0 mi WSW 9.2 mph - N/A   Scattered Clouds
9:45 AM -14.8 °F -30.8 °F -18.4 °F 84% 30.07 in 10.0 mi West 6.9 mph - N/A   Scattered Clouds
10:45 AM -14.8 °F -34.6 °F -18.4 °F 84% 30.08 in 6.0 mi West 10.4 mph - N/A   Mostly Cloudy
11:05 AM -14.8 °F -33.5 °F -18.4 °F 84% 30.08 in 1.0 mi West 9.2 mph - N/A   Overcast
11:45 AM -13.0 °F -30.0 °F -16.6 °F 84% 30.08 in 1.0 mi West 8.1 mph - N/A   Overcast
12:55 PM -13.0 °F -32.4 °F -16.6 °F 84% 30.10 in 2.0 mi West 10.4 mph - N/A   Overcast
1:15 PM -13.0 °F -34.3 °F -16.6 °F 84% 30.10 in 1.0 mi West 12.7 mph - N/A   Overcast
1:55 PM -13.0 °F -31.3 °F -16.6 °F 84% 30.11 in 2.0 mi West 9.2 mph - N/A   Overcast
2:45 PM -13.0 °F -31.3 °F -16.6 °F 84% 30.10 in 1.0 mi West 9.2 mph - N/A   Overcast
2:55 PM -13.0 °F -32.4 °F -16.6 °F 84% 30.10 in 0.2 mi West 10.4 mph - N/A Fog Light Freezing Fog
3:55 PM -14.8 °F -34.6 °F -18.4 °F 84% 30.10 in 1.0 mi West 10.4 mph - N/A   Overcast
4:45 PM -14.8 °F -29.1 °F -18.4 °F 84% 30.11 in 3.0 mi WNW 5.8 mph - N/A   Overcast
5:45 PM -13.0 °F -27.0 °F -16.6 °F 84% 30.12 in 2.0 mi WNW 5.8 mph - N/A Snow Light Snow
6:45 PM -13.0 °F -27.0 °F -22.0 °F 64% 30.12 in 7.0 mi West 5.8 mph - N/A Snow Light Snow